This demonstration page uses our WeatherBlox Daily Observations layout. Learn more.

Left ArrowRight Arrow

41.86663, -103.66717

Hourly Observations for September 16, 2018

Temp ( °F °C ) Dew Point ( °F °C ) Humidity (%) Winds ( mph kmh ) Pressure ( in mb ) Visibility ( mi km ) Precip ( " mm )
12:53 am 00:53 Clear 74 23.3 60 15.6 62 62 SSE 18 30 29.80 1009 10 16 N/A
1:53 am 01:53 Clear 71 21.7 60 15.6 68 68 SSE 17 28 29.79 1009 10 16 N/A
2:04 am 02:04 Clear 72 22 61 16 69 69 SE 12 19 29.71 1006 10 16 N/A
2:53 am 02:53 Clear 71 21.7 60 15.6 68 68 NNE 8 13 29.78 1009 10 16 N/A
3:53 am 03:53 Clear 67 19.4 61 16.1 81 81 ENE 7 11 29.78 1008 10 16 N/A
4:53 am 04:53 Clear 61 16.1 61 16.1 100 100 ESE 9 15 29.78 1009 10 16 N/A
5:53 am 05:53 Clear 61 16.1 61 16.1 100 100 ESE 10 17 29.79 1009 10 16 N/A
6:53 am 06:53 Sunny 60 15.6 60 15.6 100 100 ESE 8 13 29.81 1010 10 16 N/A
7:53 am 07:53 Sunny 63 17.2 62 16.7 97 97 ESE 7 11 29.83 1010 10 16 N/A
8:53 am 08:53 Sunny 69 20.6 61 16.1 76 76 N N/A 29.84 1011 10 16 N/A
9:53 am 09:53 Sunny 75 23.9 60 15.6 60 60 N N/A 29.85 1011 10 16 N/A
10:53 am 10:53 Sunny 82 27.8 53 11.7 37 37 VRB 3 6 29.83 1010 10 16 N/A
11:53 am 11:53 Sunny 87 30.6 55 12.8 34 34 VRB 3 6 29.81 1010 10 16 N/A
12:53 pm 12:53 Sunny 91 32.8 51 10.6 26 26 W 6 9 29.79 1009 10 16 N/A
1:53 pm 13:53 Sunny 94 34.4 44 6.7 18 18 VRB 5 7 29.77 1008 10 16 N/A
2:53 pm 14:53 Sunny 95 35 41 5 15 15 N N/A 29.75 1007 10 16 N/A
3:53 pm 15:53 Sunny 96 35.6 38 3.3 13 13 NW 8 13 29.73 1007 10 16 N/A
4:53 pm 16:53 Sunny 96 35.6 39 3.9 14 14 VRB 6 9 29.74 1007 10 16 N/A
5:17 pm 17:17 Sunny 92 33.3 49 9.4 23 23 ESE 9 15 29.56 1001 10 16 N/A
5:53 pm 17:53 Sunny 89 31.7 46 7.8 23 23 E 14 22 29.75 1008 10 16 N/A
6:53 pm 18:53 Sunny 81 27.2 47 8.3 30 30 ENE 8 13 29.79 1009 10 16 N/A
7:53 pm 19:53 Mostly Clear 81 27.2 46 7.8 29 29 NE 12 19 29.79 1009 10 16 N/A
8:53 pm 20:53 Mostly Cloudy 82 27.8 54 12.2 38 38 ENE 14 22 29.79 1009 10 16 N/A
9:53 pm 21:53 Mostly Cloudy 77 25 57 13.9 50 50 NE 12 19 29.81 1010 10 16 N/A
10:53 pm 22:53 Partly Cloudy 74 23.3 59 15 60 60 NNE 9 15 29.83 1010 10 16 N/A
11:53 pm 23:53 Clear 72 22.2 59 15 64 64 E 10 17 29.79 1009 10 16 N/A

Powered by AerisWeather